Time,TemperatureF,DewpointF,PressureIn,WindDirection,WindDirectionDegrees,WindSpeedMPH,WindSpeedGustMPH,Humidity,HourlyPrecipIn,Conditions,Clouds,dailyrainin,SolarRadiationWatts/m^2,SoftwareType,DateUTC
2013-01-26 00:21:00,54.0,47.0,30.07,NNE,31,4.0,5.0,76,-99.99,,,-99.99,0.000000,,2013-01-26 08:21:00,
2013-01-26 00:31:00,54.0,47.0,30.07,NNE,31,4.0,5.0,76,-99.99,,,-99.99,0.000000,,2013-01-26 08:31:00,
2013-01-26 00:40:00,54.0,47.0,30.06,NE,49,3.0,4.0,76,-99.99,,,-99.99,0.000000,,2013-01-26 08:40:00,
2013-01-26 01:22:00,54.0,47.0,30.06,NE,49,3.0,4.0,76,-99.99,,,-99.99,0.000000,,2013-01-26 09:22:00,
2013-01-26 01:31:00,54.0,47.0,30.06,NE,49,3.0,4.0,76,-99.99,,,-99.99,0.000000,,2013-01-26 09:31:00,
2013-01-26 01:40:00,54.0,46.0,30.05,NNE,25,4.0,6.0,74,-99.99,,,-99.99,0.000000,,2013-01-26 09:40:00,
2013-01-26 02:21:00,54.0,46.0,30.05,NNE,25,4.0,6.0,74,-99.99,,,-99.99,0.000000,,2013-01-26 10:21:00,
2013-01-26 02:31:00,54.0,46.0,30.05,NNE,25,4.0,6.0,74,-99.99,,,-99.99,0.000000,,2013-01-26 10:31:00,
2013-01-26 02:40:00,53.0,46.0,30.04,NW,321,3.0,4.0,79,-99.99,,,-99.99,0.000000,,2013-01-26 10:40:00,
2013-01-26 03:22:00,53.0,46.0,30.04,NW,321,3.0,4.0,79,-99.99,,,-99.99,0.000000,,2013-01-26 11:22:00,
2013-01-26 03:32:00,53.0,46.0,30.04,NW,321,3.0,4.0,79,-99.99,,,-99.99,0.000000,,2013-01-26 11:32:00,
2013-01-26 03:40:00,53.0,46.0,30.02,ENE,70,2.0,3.0,75,-99.99,,,-99.99,0.000000,,2013-01-26 11:40:00,
2013-01-26 04:22:00,53.0,46.0,30.02,ENE,70,2.0,3.0,75,-99.99,,,-99.99,0.000000,,2013-01-26 12:22:00,
2013-01-26 04:33:00,53.0,46.0,30.02,ENE,70,2.0,3.0,75,-99.99,,,-99.99,0.000000,,2013-01-26 12:33:00,
2013-01-26 04:40:00,53.0,46.0,30.02,South,171,1.0,3.0,79,-99.99,,,-99.99,0.000000,,2013-01-26 12:40:00,
2013-01-26 05:22:00,53.0,46.0,30.02,South,171,1.0,3.0,79,-99.99,,,-99.99,0.000000,,2013-01-26 13:22:00,
2013-01-26 05:32:00,53.0,46.0,30.02,South,171,1.0,3.0,79,-99.99,,,-99.99,0.000000,,2013-01-26 13:32:00,
2013-01-26 05:40:00,52.0,45.0,30.02,West,279,3.0,4.0,77,-99.99,,,-99.99,0.000000,,2013-01-26 13:40:00,
2013-01-26 06:21:00,52.0,45.0,30.02,West,279,3.0,4.0,77,-99.99,,,-99.99,0.000000,,2013-01-26 14:21:00,
2013-01-26 06:32:00,52.0,45.0,30.02,West,279,3.0,4.0,77,-99.99,,,-99.99,0.000000,,2013-01-26 14:32:00,
2013-01-26 06:40:00,52.0,45.0,30.02,SE,144,3.0,4.0,79,-99.99,,,-99.99,0.000000,,2013-01-26 14:40:00,
2013-01-26 07:22:00,52.0,45.0,30.02,SE,144,3.0,4.0,79,-99.99,,,-99.99,0.000000,,2013-01-26 15:22:00,
2013-01-26 07:32:00,52.0,45.0,30.02,SE,144,3.0,4.0,79,-99.99,,,-99.99,0.000000,,2013-01-26 15:32:00,
2013-01-26 07:40:00,51.0,44.0,30.02,NE,51,4.0,7.0,77,-99.99,,,-99.99,14.000000,,2013-01-26 15:40:00,
2013-01-26 08:22:00,51.0,44.0,30.02,NE,51,4.0,7.0,77,-99.99,,,-99.99,14.000000,,2013-01-26 16:22:00,
2013-01-26 08:32:00,51.0,44.0,30.02,NE,51,4.0,7.0,77,-99.99,,,-99.99,14.000000,,2013-01-26 16:32:00,
2013-01-26 08:40:00,53.0,45.0,30.03,NE,52,3.0,5.0,72,-99.99,,,-99.99,269.000000,,2013-01-26 16:40:00,
2013-01-26 09:22:00,53.0,45.0,30.03,NE,52,3.0,5.0,72,-99.99,,,-99.99,269.000000,,2013-01-26 17:22:00,
2013-01-26 09:32:00,53.0,45.0,30.03,NE,52,3.0,5.0,72,-99.99,,,-99.99,269.000000,,2013-01-26 17:32:00,
2013-01-26 09:40:00,54.0,46.0,30.04,WSW,255,3.0,5.0,74,-99.99,,,-99.99,456.000000,,2013-01-26 17:40:00,
2013-01-26 10:22:00,54.0,46.0,30.04,WSW,255,3.0,5.0,74,-99.99,,,-99.99,456.000000,,2013-01-26 18:22:00,
2013-01-26 10:32:00,54.0,46.0,30.04,WSW,255,3.0,5.0,74,-99.99,,,-99.99,456.000000,,2013-01-26 18:32:00,
2013-01-26 10:40:00,54.0,48.0,30.04,West,262,6.0,8.0,80,-99.99,,,-99.99,579.000000,,2013-01-26 18:40:00,
2013-01-26 11:22:00,54.0,48.0,30.04,West,262,6.0,8.0,80,-99.99,,,-99.99,579.000000,,2013-01-26 19:22:00,
2013-01-26 11:32:00,54.0,48.0,30.04,West,262,6.0,8.0,80,-99.99,,,-99.99,579.000000,,2013-01-26 19:32:00,
2013-01-26 11:40:00,54.0,48.0,30.04,West,267,5.0,8.0,81,-99.99,,,-99.99,678.000000,,2013-01-26 19:40:00,
2013-01-26 12:21:00,54.0,48.0,30.04,West,267,5.0,8.0,81,-99.99,,,-99.99,678.000000,,2013-01-26 20:21:00,
2013-01-26 12:32:00,54.0,48.0,30.04,West,267,5.0,8.0,81,-99.99,,,-99.99,678.000000,,2013-01-26 20:32:00,
2013-01-26 12:40:00,54.0,47.0,30.02,WSW,252,5.0,7.0,77,-99.99,,,-99.99,663.000000,,2013-01-26 20:40:00,
2013-01-26 13:22:00,54.0,47.0,30.02,WSW,252,5.0,7.0,77,-99.99,,,-99.99,663.000000,,2013-01-26 21:22:00,
2013-01-26 13:32:00,54.0,47.0,30.02,WSW,252,5.0,7.0,77,-99.99,,,-99.99,663.000000,,2013-01-26 21:32:00,
2013-01-26 13:40:00,53.0,48.0,30.00,West,268,4.0,7.0,82,-99.99,,,-99.99,601.000000,,2013-01-26 21:40:00,
2013-01-26 14:21:00,53.0,48.0,30.00,West,268,4.0,7.0,82,-99.99,,,-99.99,601.000000,,2013-01-26 22:21:00,
2013-01-26 14:31:00,53.0,48.0,30.00,West,268,4.0,7.0,82,-99.99,,,-99.99,601.000000,,2013-01-26 22:31:00,
2013-01-26 14:40:00,51.0,44.0,30.01,SW,217,3.0,6.0,76,-99.99,,,-99.99,483.000000,,2013-01-26 22:40:00,
2013-01-26 15:40:00,51.0,44.0,30.00,SSE,160,3.0,5.0,77,-99.99,,,-99.99,307.000000,,2013-01-26 23:40:00,
2013-01-26 16:21:00,51.0,44.0,30.00,SSE,160,3.0,5.0,77,-99.99,,,-99.99,307.000000,,2013-01-27 00:21:00,
2013-01-26 16:32:00,51.0,44.0,30.00,SSE,160,3.0,5.0,77,-99.99,,,-99.99,307.000000,,2013-01-27 00:32:00,
2013-01-26 16:40:00,48.0,43.0,30.00,WSW,244,1.0,4.0,82,-99.99,,,-99.99,132.000000,,2013-01-27 00:40:00,
2013-01-26 17:22:00,48.0,43.0,30.00,WSW,244,1.0,4.0,82,-99.99,,,-99.99,132.000000,,2013-01-27 01:22:00,
2013-01-26 17:32:00,48.0,43.0,30.00,WSW,244,1.0,4.0,82,-99.99,,,-99.99,132.000000,,2013-01-27 01:32:00,
2013-01-26 17:40:00,42.0,40.0,30.00,SW,229,3.0,5.0,93,-99.99,,,-99.99,3.000000,,2013-01-27 01:40:00,
2013-01-26 18:21:00,42.0,40.0,30.00,SW,229,3.0,5.0,93,-99.99,,,-99.99,3.000000,,2013-01-27 02:21:00,
2013-01-26 18:31:00,42.0,40.0,30.00,SW,229,3.0,5.0,93,-99.99,,,-99.99,3.000000,,2013-01-27 02:31:00,
2013-01-26 18:40:00,41.0,40.0,30.01,South,176,6.0,8.0,97,-99.99,,,-99.99,0.000000,,2013-01-27 02:40:00,
2013-01-26 19:21:00,41.0,40.0,30.01,South,176,6.0,8.0,97,-99.99,,,-99.99,0.000000,,2013-01-27 03:21:00,
2013-01-26 19:31:00,41.0,40.0,30.01,South,176,6.0,8.0,97,-99.99,,,-99.99,0.000000,,2013-01-27 03:31:00,
2013-01-26 19:40:00,40.0,40.0,30.01,South,174,1.0,4.0,97,-99.99,,,-99.99,0.000000,,2013-01-27 03:40:00,
2013-01-26 20:21:00,40.0,40.0,30.01,South,174,1.0,4.0,97,-99.99,,,-99.99,0.000000,,2013-01-27 04:21:00,
2013-01-26 20:31:00,40.0,40.0,30.01,South,174,1.0,4.0,97,-99.99,,,-99.99,0.000000,,2013-01-27 04:31:00,
2013-01-26 20:40:00,40.0,39.0,30.02,WNW,286,4.0,5.0,97,-99.99,,,-99.99,0.000000,,2013-01-27 04:40:00,
2013-01-26 21:22:00,40.0,39.0,30.02,WNW,286,4.0,5.0,97,-99.99,,,-99.99,0.000000,,2013-01-27 05:22:00,
2013-01-26 21:32:00,40.0,39.0,30.02,WNW,286,4.0,5.0,97,-99.99,,,-99.99,0.000000,,2013-01-27 05:32:00,
2013-01-26 21:40:00,39.0,37.0,30.03,West,281,5.0,8.0,94,-99.99,,,-99.99,0.000000,,2013-01-27 05:40:00,
2013-01-26 22:21:00,39.0,37.0,30.03,West,281,5.0,8.0,94,-99.99,,,-99.99,0.000000,,2013-01-27 06:21:00,
2013-01-26 22:31:00,39.0,37.0,30.03,West,281,5.0,8.0,94,-99.99,,,-99.99,0.000000,,2013-01-27 06:31:00,
2013-01-26 22:40:00,38.0,34.0,30.03,NNW,344,2.0,4.0,85,-99.99,,,-99.99,0.000000,,2013-01-27 06:40:00,
2013-01-26 23:21:00,38.0,34.0,30.03,NNW,344,2.0,4.0,85,-99.99,,,-99.99,0.000000,,2013-01-27 07:21:00,
2013-01-26 23:31:00,38.0,34.0,30.03,NNW,344,2.0,4.0,85,-99.99,,,-99.99,0.000000,,2013-01-27 07:31:00,
2013-01-26 23:40:00,37.0,31.0,30.04,NW,306,5.0,9.0,79,-99.99,,,-99.99,0.000000,,2013-01-27 07:40:00,